Location: Zagreb
(45.8000°N, 16.0000°E)
Time: 17:27:06
(UTC+01:00)

Tiros 1 despin weight - Pass Details

Date: 29 January 2020
Orbit: 594 x 642 km, 48.2° (Epoch: 25 February)

Event Time Altitude Azimuth Distance (km) Brightness Sun altitude
Rises 11:45:04 0° 265° (W) 2,859 ? 26.0°
Reaches altitude 10° 11:47:22 10° 268° (W) 1,964 ? 26.0°
Maximum altitude 11:51:52 68° 352° (N) 666 ? 26.1°
Drops below altitude 10° 11:56:27 10° 76° (ENE) 1,997 ? 26.1°
Sets 11:58:48 0° 79° (E) 2,912 ? 26.2°
